harristeeter.com alexa rank chart, harristeeter.com alexa rank daily changes

harristeeter.com alexa rank chart, harristeeter.com alexa rank daily changes

harristeeter.com
Actual rank:
35 729

RANK HISTORY

Date Rank Diff
2017/10/21 35 729 -77
2017/10/20 35 806 -237
2017/10/19 36 043 +402
2017/10/18 35 641 +249
2017/10/17 35 392 -123
2017/10/16 35 515 +219
2017/10/14 35 296 +344
2017/10/13 34 952 -250
2017/10/12 35 202 +406
2017/10/11 34 796 +580
2017/10/10 34 216 -99
2017/10/09 34 315 +268
2017/10/08 34 047 +657
2017/10/07 33 390 -226
2017/10/06 33 616 -619
2017/10/05 34 235 +351
2017/10/04 33 884 +309
2017/10/03 33 575 +310
2017/10/02 33 265 -283
2017/10/01 33 548 +173
2017/09/30 33 375 -169
2017/09/29 33 544 -279
2017/09/28 33 823 +938
2017/09/27 32 885 -70
2017/09/26 32 955 -279
2017/09/25 33 234 +18
2017/09/24 33 216 -247
2017/09/23 33 463 -82
2017/09/22 33 545 +833
2017/09/20 32 712 +62
2017/09/19 32 650 -84
2017/09/18 32 734 +265
2017/09/17 32 469 -105
2017/09/16 32 574 -112
2017/09/15 32 686 -161
2017/09/14 32 847 +247
2017/09/13 32 600 -109
2017/09/12 32 709 -390
2017/09/11 33 099 +640
2017/09/10 32 459 -254
2017/09/09 32 713 -673
2017/09/08 33 386 -612
2017/09/07 33 998 +597
2017/09/06 33 401 -171
2017/09/05 33 572 -123
2017/09/04 33 695 +122
2017/09/03 33 573 -470
2017/09/02 34 043 -155
2017/09/01 34 198 -231
2017/08/31 34 429 +327
2017/08/30 34 102 +212
2017/08/29 33 890 -413
2017/08/28 34 303 -200
2017/08/27 34 503 -200
2017/08/26 34 703 -44
2017/08/25 34 747 -221
2017/08/24 34 968 +906
2017/08/23 34 062 +662
2017/08/22 33 400

WIDGET FOR YOUR SITE

DOMAINS WITH THE NEAREST RANK

Domain Rank
elllo.org 35 724
lutrija.hr 35 725
hsbc.com.au 35 726
myrta.com 35 727
91p09.space 35 728
harristeeter.com 35 729
robot-co.in 35 730
g2play.net 35 731
avtosfer.az 35 732
cmkt-image-prd.global.ssl.fastly.net 35 733
eldorado.ua 35 734

DOMAINS WITH THE NEAREST RANK BY TLD .com

Domain Rank
kokodane.com 35 710
hulkload.com 35 714
genbook.com 35 715
thecvf.com 35 716
myrta.com 35 727
harristeeter.com 35 729
wstx.com 35 736
fabfitfun.com 35 740
omega.com 35 742
plumperpass.com 35 745
crestron.com 35 750